Location: Shepherdstown, WV
(39.4326°N, 77.8042°W)
Time: 14:27:00
(UTC-04:00)

Vanguard 1 Rocket - Pass Details

Date: 11 August 2021
Orbit: 650 x 4226 km, 34.3° (Epoch: 20 September)

Event Time Altitude Azimuth Distance (km) Brightness Sun altitude
Rises 07:14:44 0° 224° (SW) 7,944 11.7 9.2°
Reaches altitude 10° 07:20:06 10° 219° (SW) 7,171 11.5 10.2°
Maximum altitude 07:44:41 53° 151° (SSE) 4,587 11.4 14.9°
Drops below altitude 10° 08:04:04 10° 82° (E) 5,869 14.0 18.6°
Sets 08:07:52 0° 78° (ENE) 6,498 13.3 19.4°
